[Iaude] MPEC O105: 2024 OZ [a=1.95,e=0.70,i=11.9,H=20.3]
    mpec at cfa.harvard.edu 
    mpec at cfa.harvard.edu
       
    Tue Jul 30 20:55:38 EDT 2024
    
    
  
M.P.E.C. 2024-O105                                Issued 2024 July 31, 00:54 UT
     The Minor Planet Electronic Circulars contain information on unusual
         minor planets, routine data on comets and natural satellites,
         and occasional editorial announcements.  They are published
    on behalf of Division F of the International Astronomical Union by the
          Minor Planet Center, Smithsonian Astrophysical Observatory,
                          Cambridge, MA 02138, U.S.A.
			  
             Prepared using the Tamkin Foundation Computer Network
                              MPC at CFA.HARVARD.EDU
            URL https://www.minorplanetcenter.net/    ISSN 1523-6714
                                    2024 OZ                                     
Observations:
     K24O00Z  C2024 06 18.55707821 39 06.828-12 02 01.90         22.12GVEO105F51
     K24O00Z  C2024 06 18.56873321 39 07.261-12 02 02.98         22.56GVEO105F51
     K24O00Z  C2024 06 18.58039621 39 07.668-12 02 03.95         22.64GVEO105F51
     K24O00Z  C2024 06 18.59206421 39 08.102-12 02 05.09         22.98GVEO105F51
     K24O00Z  C2024 06 28.53881321 44 43.157-12 34 06.15         21.96GVEO105F51
     K24O00Z  C2024 06 28.54791421 44 43.380-12 34 08.46         21.34GVEO105F51
     K24O00Z  C2024 06 28.55698821 44 43.568-12 34 11.04         21.52GVEO105F51
     K24O00Z  C2024 06 28.56673121 44 43.788-12 34 14.20         21.39GVEO105F51
     K24O00Z &C2024 07 04.30618221 46 53.62 -13 10 12.8                WEO105W84
     K24O00Z  C2024 07 04.48368921 46 56.979-13 11 44.50         20.82GVEO105F52
     K24O00Z  C2024 07 04.49487521 46 57.178-13 11 49.82         21.42GVEO105F52
     K24O00Z  C2024 07 04.50606021 46 57.300-13 11 55.93         21.88GVEO105F52
     K24O00Z  C2024 07 04.51727321 46 57.448-13 12 00.63         21.85GVEO105F52
     K24O00Z &C2024 07 07.27606021 47 38.51 -13 35 32.2                WEO105W84
     K24O00Z &C2024 07 09.27330921 47 59.00 -13 55 32.5                WEO105W84
     K24O00Z* C2024 07 27.45788821 42 56.443-19 41 10.04         20.33wXEO105F51
     K24O00Z  C2024 07 27.46971921 42 55.760-19 41 31.70         20.34wXEO105F51
     K24O00Z  C2024 07 27.48154621 42 55.074-19 41 53.34         20.28wXEO105F51
     K24O00Z  C2024 07 27.54072521 42 51.636-19 43 41.23         20.63GVEO105F51
     K24O00Z  C2024 07 27.54136221 42 51.604-19 43 42.37         20.38GVEO105F51
     K24O00Z KB2024 07 27.92460 21 42 32.71 -19 55 36.9          20.2 VZEO105M45
     K24O00Z KB2024 07 27.93144 21 42 32.33 -19 55 49.6          20.3 VZEO105M45
     K24O00Z pC2024 07 27.94090521 42 31.88 -19 56 06.3          19.9 GVEO105L01
     K24O00Z pC2024 07 27.94342621 42 31.82 -19 56 11.1          20.1 GVEO105L01
     K24O00Z pC2024 07 27.94599121 42 31.70 -19 56 14.9          19.9 GVEO105L01
     K24O00Z KC2024 07 28.01292921 42 27.77 -19 58 22.8          20.1 GVEO105K51
     K24O00Z KC2024 07 28.02001721 42 27.35 -19 58 36.2                VEO105K51
     K24O00Z KC2024 07 28.02983721 42 26.77 -19 58 54.7          19.8 GVEO105K51
     K24O00Z |C2024 07 28.28999021 42 12.580-20 06 46.80         20.7 GVEO105807
     K24O00Z |C2024 07 28.29214021 42 12.480-20 06 50.40         20.5 GVEO105807
     K24O00Z |C2024 07 28.29434021 42 12.390-20 06 54.30         20.6 GVEO105807
     K24O00Z KB2024 07 30.29251 21 40 13.548-21 14 33.76         19.9 RZEO105H36
     K24O00Z KB2024 07 30.31260 21 40 12.084-21 15 16.92         20.1 RZEO105H36
     K24O00Z  C2024 07 30.48938921 40 00.342-21 21 32.74         19.94wXEO105F51
     K24O00Z  C2024 07 30.49928421 39 59.597-21 21 54.12         19.83wXEO105F51
     K24O00Z  C2024 07 30.50920521 39 58.852-21 22 15.52         19.86wXEO105F51
     K24O00Z  C2024 07 30.51912621 39 58.095-21 22 36.83         19.91wXEO105F51
Observer details:
807 Cerro Tololo Observatory, La Serena.  Observers T. Linder, R. Holmes.
    0.61-m f/6.8 Ritchey-Chretien + CCD.
F51 Pan-STARRS 1, Haleakala.  Observers J. Herman, T. Lowe, P. Minguez, A.
    Schultz, I. Smith.  Measurers K. Chambers, T. de Boer, J. Fairlamb, H.
    Gao, M. Huber, C.-C. Lin, E. Magnier, Y. Ramanjooloo, R. Wainscoat, R.
    Weryk.  1.8-m Ritchey-Chretien + CCD.
F52 Pan-STARRS 2, Haleakala.  Observers J. Herman, T. Lowe, P. Minguez, A.
    Schultz, I. Smith.  Measurers K. Chambers, T. de Boer, J. Fairlamb, H.
    Gao, M. Huber, C.-C. Lin, E. Magnier, Y. Ramanjooloo, R. Wainscoat, R.
    Weryk.  1.8-m Ritchey-Chretien + CCD.
H36 Sandlot Observatory, Scranton.  Observer G. Hug.  0.56-m f/4.25 reflector
    + CMO.
K51 Osservatorio del Celado, Castello Tesino.  Observer M. Campestrin.  0.80-m
    f/4 reflector + CCD.
L01 Visnjan Observatory, Tican.  Observer K. Korlevic.  1.0-m f/2.9 reflector
    + CCD.
M45 Starhopper Observatory, Sfantu Gheorghe.  Observer F. Ursache.  0.41-m
    f/7.5 reflector + CMO.
W84 Cerro Tololo-DECam.  Observer .  Measurer S. Deen.  4.0-m reflector + CCD.
Orbital elements:
2024 OZ                                                  Earth MOID = 0.1152 AU
Epoch 2024 Oct. 17.0 TT = JDT 2460600.5                 Veres                   
M 358.00547              (2000.0)            P               Q                  
n   0.36308961     Peri.  306.20111     +0.36758756     -0.91325405             
a   1.9459283      Node   121.32181     +0.90555430     +0.30848240             
e   0.7021343      Incl.   11.86431     +0.21178008     +0.26609331             
P   2.71           H   20.30          G   0.15           U   6                  
Residuals in seconds of arc
240618 F51  0.0   0.2-    240707 W84  0.0   0.1-    240728 K51  0.0   0.0
240618 F51  0.1+  0.1-    240709 W84  0.1-  0.1-    240728 K51  0.1-  0.1-
240618 F51  0.1-  0.2+    240727 F51  0.1-  0.1-    240728 807  0.4-  0.2-
240618 F51  0.1+  0.2+    240727 F51  0.0   0.1-    240728 807  0.0   0.2+
240628 F51  0.1-  0.3-    240727 F51  0.1-  0.1-    240728 807  0.6+  0.5+
240628 F51  0.1+  0.2+    240727 F51  0.1-  0.1-    240730 H36  0.2-  0.1+
240628 F51  0.2-  0.3+    240727 F51  0.0   0.1-    240730 H36  0.2-  0.0
240628 F51  0.3-  0.1+    240727 M45  0.2+  0.1-    240730 F51  0.0   0.0
240704 W84  0.2+  0.3+    240727 M45  0.5+  0.1+    240730 F51  0.0   0.0
240704 F52  0.3-  0.1+    240727 L01 (0.8-  0.8+)   240730 F51  0.1+  0.0
240704 F52  0.4+  0.1+    240727 L01  0.4+  0.7+    240730 F51  0.1-  0.0
240704 F52  0.0   0.7-    240727 L01 (0.8+  1.8+)
240704 F52  0.0   0.1-    240728 K51  0.0   0.0
Ephemeris:
2024 OZ                  a,e,i = 1.95, 0.70, 12                  q = 0.5796
Date    TT    R. A. (2000) Decl.     Delta      r    Elong.  Phase     V
2024 07 01    21 45 45.3 -12 47 35   0.8557  1.7307   135.0    24.6    22.3
...
2024 07 16    21 48 02.5 -15 24 06   0.6191  1.5816   149.6    19.0    21.2
...
2024 07 24    21 45 20.9 -18 05 26   0.5063  1.4980   158.3    14.5    20.5
...
2024 07 30    21 40 32.3 -21 03 55   0.4286  1.4335   165.0    10.6    19.9
2024 07 31    21 39 25.7 -21 39 56   0.4163  1.4226   166.0    10.0    19.8
2024 08 01    21 38 12.7 -22 18 01   0.4042  1.4116   166.9     9.4    19.7
...
2024 08 07    21 28 13.6 -26 57 29   0.3358  1.3449   168.5     8.6    19.2
...
2024 08 15    21 03 34.8 -36 10 19   0.2578  1.2535   156.5    18.8    18.8
...
2024 08 30    18 02 44.7 -62 35 54   0.1721  1.0757   108.1    63.2    18.9
M. P. C. Staff               (C) Copyright 2024 MPC           M.P.E.C. 2024-O105
    
    
More information about the Iaude
mailing list